This demonstration page uses our WeatherBlox Daily Observations layout. Learn more.

Left ArrowRight Arrow

Hourly Observations for March 10, 2017

Temp ( °F °C ) Dew Point ( °F °C ) Humidity (%) Winds ( mph kmh ) Pressure ( in mb ) Visibility ( mi km ) Precip ( " mm )
12:52 am 00:52 Clear 44 6.7 31 -0.6 60 60 NNE 14 22 30.20 1023 10 16 0.00 0.00
1:52 am 01:52 Clear 42 5.6 29 -1.7 60 60 N 15 24 30.24 1024 10 16 0.00 0.00
2:52 am 02:52 Clear 40 4.4 29 -1.7 65 65 NNE 16 26 30.26 1025 10 16 0.00 0.00
3:52 am 03:52 Clear 38 3.3 29 -1.7 70 70 NNE 13 20 30.27 1025 10 16 0.00 0.00
4:52 am 04:52 Clear 37 2.8 29 -1.7 73 73 NNE 12 19 30.33 1027 10 16 0.00 0.00
5:52 am 05:52 Clear 35 1.7 28 -2.2 76 76 N 8 13 30.40 1029 10 16 0.00 0.00
6:52 am 06:52 Sunny 34 1.1 25 -3.9 70 70 NNE 8 13 30.43 1030 10 16 0.00 0.00
7:52 am 07:52 Sunny 36 2.2 25 -3.9 64 64 NNE 14 22 30.44 1031 10 16 0.00 0.00
8:52 am 08:52 Sunny 38 3.3 24 -4.4 57 57 NNE 15 24 30.45 1031 10 16 0.00 0.00
9:52 am 09:52 Sunny 40 4.4 22 -5.6 49 49 NE 13 20 30.47 1032 10 16 0.00 0.00
10:52 am 10:52 Sunny 43 6.1 22 -5.6 43 43 NE 14 22 30.47 1032 10 16 0.00 0.00
11:52 am 11:52 Sunny 45 7.2 24 -4.4 44 44 NE 8 13 30.46 1031 10 16 0.00 0.00
12:52 pm 12:52 Sunny 47 8.3 24 -4.4 41 41 NE 13 20 30.42 1030 10 16 0.00 0.00
1:52 pm 13:52 Sunny 49 9.4 24 -4.4 38 38 NE 9 15 30.38 1029 10 16 0.00 0.00
2:52 pm 14:52 Sunny 50 10 22 -5.6 33 33 NE 15 24 30.34 1027 10 16 0.00 0.00
3:52 pm 15:52 Sunny 49 9.4 22 -5.6 35 35 E 13 20 30.33 1027 10 16 0.00 0.00
4:52 pm 16:52 Sunny 48 8.9 22 -5.6 36 36 NE 10 17 30.31 1026 10 16 0.00 0.00
5:52 pm 17:52 Sunny 46 7.8 20 -6.7 35 35 NE 10 17 30.32 1027 10 16 0.00 0.00
6:52 pm 18:52 Partly Cloudy 44 6.7 21 -6.1 40 40 NE 12 19 30.32 1027 10 16 0.00 0.00
7:52 pm 19:52 Mostly Cloudy 43 6.1 20 -6.7 40 40 ENE 12 19 30.31 1026 10 16 0.00 0.00
8:52 pm 20:52 Mostly Cloudy 41 5 19 -7.2 41 41 ENE 16 26 30.29 1026 10 16 0.00 0.00
9:52 pm 21:52 Cloudy 41 5 20 -6.7 43 43 E 13 20 30.29 1026 10 16 0.00 0.00
10:52 pm 22:52 Cloudy 41 5 20 -6.7 43 43 ENE 14 22 30.31 1026 10 16 0.00 0.00
11:52 pm 23:52 Cloudy 41 5 20 -6.7 43 43 E 15 24 30.28 1025 10 16 0.00 0.00

Powered by AerisWeather